Home > Weather > West Covina > Past weeks

Flag for USA Past Weather in West Covina, California, USA — Yesterday and Last 2 Weeks

Now
90 °F

Sunny.


Feels Like: 91 °F
Forecast: 69 / 96 °F
Wind: 3 mph from North

Location: Fullerton Municipal Airport

Current Time: Jul 26, 2016 at 1:00:23 PM

Latest Report: Jul 26, 2016 at 11:53 AM


Visibility: 10 mi

Pressure: 29.86 "Hg

Humidity: 41%

Dew Point: 63 °F

Location of West CovinaLocation

Past Weather in West Covina — Graph

°F

West Covina Temperature Yesterday

Maximum temperature yesterday: 92 °F (at 1:53 PM)
Minimum temperature yesterday: 70 °F (at 5:53 AM)
Average temperature yesterday: 79 °F

High & Low Weather Summary for the Past Weeks

 TemperatureHumidityPressure
High103 °F (Jul 22, 2:53 PM)87% (Jul 24, 4:53 AM)30.02 "Hg (Jul 24, 4:53 AM)
Low65 °F (Jul 15, 3:53 AM)13% (Jul 22, 3:53 PM)29.78 "Hg (Jul 23, 5:53 PM)
Average77 °F59%29.91 "Hg
* Reported Jul 11 11:53 AM — Jul 26 11:53 AM, West Covina, Weather by CustomWeather, © 2016

Note: Actual official high and low records may vary slightly from our data, if they occured in-between our weather recording intervals... More about our weather records

Advertising

West Covina Weather History for the Previous 24 Hours

Scroll right to see more
 ConditionsComfort  
Time TempWeatherWind HumidityBarometerVisibility
11:53 AM
Tue, Jul 26
90 °FSunny.3 mph41%29.86 "Hg10 mi
10:53 AM86 °FSunny.No wind46%29.88 "Hg10 mi
9:53 AM83 °FSunny.5 mph51%29.88 "Hg10 mi
8:53 AM80 °FSunny.3 mph58%29.88 "Hg9 mi
7:53 AM76 °FPassing clouds.5 mph67%29.88 "Hg9 mi
6:53 AM73 °FClear.5 mph74%29.87 "Hg8 mi
5:53 AM72 °FClear.3 mph76%29.87 "Hg9 mi
4:53 AM72 °FClear.No wind78%29.88 "Hg9 mi
3:53 AM73 °FClear.3 mph76%29.88 "Hg10 mi
2:53 AM73 °FClear.No wind79%29.89 "Hg10 mi
1:53 AM74 °FClear.3 mph74%29.89 "Hg10 mi
12:53 AM74 °FClear.6 mph76%29.90 "Hg10 mi
11:53 PM
Mon, Jul 25
76 °FClear.No wind67%29.90 "Hg10 mi
10:53 PM77 °FClear.No wind64%29.90 "Hg10 mi
9:53 PM77 °FClear.5 mph69%29.90 "Hg10 mi
8:53 PM78 °FSunny.5 mph60%29.88 "Hg10 mi
7:53 PM79 °FSunny.6 mph54%29.86 "Hg10 mi
6:53 PM81 °FSunny.9 mph47%29.85 "Hg10 mi
5:53 PM82 °FSunny.9 mph46%29.84 "Hg10 mi
4:53 PM86 °FSunny.12 mph36%29.84 "Hg10 mi
3:53 PM88 °FSunny.10 mph39%29.85 "Hg10 mi
2:53 PM92 °FSunny.9 mph35%29.86 "Hg10 mi
1:53 PM92 °FSunny.10 mph37%29.88 "Hg10 mi
Weather by CustomWeather, © 2016

See weather overviewHow to use our weather pages